Location: Unspecified
(0.0000°N, 0.0000°E)
Time: 23:01:59
(UTC+00:00)

Vanguard 2 - Pass Details

Date: 04 October 2020
Orbit: 554 x 2937 km, 32.9° (Epoch: 28 October)

Event Time Altitude Azimuth Distance (km) Brightness Sun altitude
Rises 10:35:44 0° 320° (NW) 2,705 10.2 71.2°
Reaches altitude 10° 10:37:56 10° 329° (NNW) 1,838 9.5 71.8°
Maximum altitude 10:41:40 36° 38° (NE) 991 8.8 72.7°
Drops below altitude 10° 10:46:21 10° 105° (ESE) 2,332 10.4 73.8°
Sets 10:49:30 0° 113° (ESE) 3,568 11.2 74.5°
